Date,TemperatureHighF,TemperatureAvgF,TemperatureLowF,DewpointHighF,DewpointAvgF,DewpointLowF,HumidityHigh,HumidityAvg,HumidityLow,PressureMaxIn,PressureMinIn,WindSpeedMaxMPH,WindSpeedAvgMPH,GustSpeedMaxMPH,PrecipitationSumIn
2013-10-1,82.4,63.6,47.8,65.1,55.9,47.0,97,78,51,29.97,29.87,9,2,14,0.00
2013-10-2,84.6,67.6,50.7,66.7,59.4,49.9,97,78,50,29.99,29.89,12,3,21,0.00
2013-10-3,83.1,66.8,51.8,64.6,59.3,51.0,97,80,46,30.08,29.98,5,1,9,0.00
2013-10-4,87.6,71.4,57.6,71.1,64.0,56.7,97,80,52,30.03,29.92,10,2,14,0.00
2013-10-5,82.9,71.0,62.6,70.9,66.3,61.2,97,86,64,30.06,29.97,6,2,10,0.00
2013-10-6,72.0,67.6,64.6,68.6,66.3,63.7,97,96,88,30.05,29.95,9,5,16,0.00
2013-10-7,77.2,66.0,54.3,73.8,64.8,50.8,98,96,85,29.96,29.69,19,5,31,0.65
2013-10-8,67.5,55.5,44.8,54.1,49.0,43.7,98,81,50,30.27,29.95,8,2,13,0.00
2013-10-9,61.2,54.2,47.7,51.1,47.8,43.6,98,79,65,30.32,30.20,12,5,18,0.00
2013-10-10,61.2,56.6,52.3,57.4,53.0,48.0,98,88,81,30.20,29.99,11,6,17,0.06
2013-10-11,64.9,62.2,58.1,62.7,59.2,55.2,98,90,83,30.02,29.92,12,6,16,0.04
2013-10-12,72.3,65.1,58.1,59.9,52.1,43.2,87,64,39,30.21,30.00,13,8,19,0.00
2013-10-13,67.5,59.5,50.4,56.0,53.3,49.8,98,80,65,30.31,30.20,11,6,17,0.00
2013-10-14,71.6,55.9,45.5,55.6,50.0,44.4,98,83,54,30.30,30.17,5,1,8,0.00
2013-10-15,72.7,55.8,42.6,59.1,45.7,30.5,99,74,22,30.20,30.06,9,2,14,0.00
2013-10-16,68.5,59.0,47.7,60.2,55.4,44.9,99,88,69,30.06,29.86,4,1,6,0.00
2013-10-17,76.5,66.0,58.8,67.3,62.9,58.6,99,91,68,29.86,29.63,8,3,11,0.00
2013-10-18,68.0,59.2,44.2,65.2,49.1,41.2,99,70,49,29.95,29.63,14,5,21,0.00
2013-10-19,64.9,50.7,37.4,54.9,46.1,37.1,99,86,58,29.95,29.69,10,2,13,0.01
2013-10-20,63.9,52.7,39.0,53.4,42.6,36.1,99,71,39,30.00,29.70,11,4,18,0.00
2013-10-21,68.7,50.4,33.1,49.3,40.2,31.8,99,72,39,30.07,29.91,11,3,21,0.00
2013-10-22,64.9,49.5,36.9,55.5,44.4,36.1,99,84,65,29.91,29.69,8,2,12,0.00
2013-10-23,57.0,44.4,35.4,43.8,37.8,31.7,99,79,59,29.75,29.53,7,2,11,0.00
2013-10-24,56.7,43.3,33.4,39.8,33.1,27.1,95,70,39,29.95,29.69,15,5,23,0.00
2013-10-25,56.8,42.6,33.3,39.8,32.7,27.4,86,69,42,30.16,29.95,8,4,17,0.00
2013-10-26,56.8,43.0,27.9,39.7,32.1,25.6,96,69,41,30.15,29.83,19,6,27,0.00
2013-10-27,60.4,48.1,36.0,39.7,34.7,28.5,76,61,43,30.06,29.79,10,4,17,0.00
2013-10-28,63.5,45.0,28.4,41.2,34.1,26.1,93,69,39,30.24,30.06,11,2,14,0.00
2013-10-29,61.9,46.2,34.0,42.0,36.6,30.2,91,71,45,30.34,30.24,6,2,9,0.00
2013-10-30,60.3,52.4,34.5,52.7,47.4,30.7,97,83,74,30.28,30.09,5,1,8,0.00
2013-10-31,65.7,58.4,50.7,62.6,56.8,50.3,99,95,85,30.16,29.73,10,3,14,0.04